Weather History for Monett, MO

Change the Weather History Date:

Sunday, May 5, 2013

  Actual Average (KJLN) Record (KJLN)
Temperature  
Mean Temperature 42 °F 64 °F  
Max Temperature 53 °F 75 °F 91 °F (2014)
Min Temperature 32 °F 53 °F 35 °F (2013)
Degree Days  
Heating Degree Days 22 3  
Month to date heating degree days 19  
Since 1 July heating degree days 4022  
Cooling Degree Days 0 3  
Month to date cooling degree days 11  
Year to date cooling degree days 65  
Moisture  
Dew Point 41 °F    
Average Humidity 86    
Maximum Humidity 100    
Minimum Humidity 67    
Precipitation  
Precipitation 0.00 in 0.20 in 3.38 in (1960)
Month to date precipitation 0.97  
Year to date precipitation 13.21  
Snow  
Snow 0.00 in - - ()
Month to date snowfall  
Since 1 July snowfall  
Snow Depth -    
Sea Level Pressure  
Sea Level Pressure 30.04 in    
Wind  
Wind Speed 6 mph (NW)    
Max Wind Speed 14 mph    
Max Gust Speed 17 mph    
Visibility 9 miles    
Events Fog    
T = Trace of Precipitation, MM = Missing Value Source: NWS Daily Summary

Daily Weather History Graph

Daily Weather History Graph

Search for Another Location

Airport:

Trip Planner

Search our weather history database for the weather conditions in past years. The results will help you decide how hot, cold, wet, or windy it might be!

Date:

Astronomy

May. 05, 2013 Rise Set
Actual Time 6:17 AM CDT 8:08 PM CDT
Civil Twilight 5:49 AM CDT 8:36 PM CDT
Nautical Twilight 5:14 AM CDT 9:11 PM CDT
Astronomical Twilight 4:38 AM CDT 9:47 PM CDT
Moon 3:41 AM CDT (5/5) 4:14 PM CDT (5/5)
Length of Visible Light 14h 47m
Length of Day
13h 51m
Waning Crescent, 18% of the Moon is Illuminated
May 5
Waning Crescent
May 9
New
May 17
First Quarter
May 24
Full
May 31
Last Quarter

Hourly Weather History & Observations

Time (CDT) Temp. Windchill Dew Point Humidity Pressure Visibility Wind Dir Wind Speed Gust Speed Precip Events Conditions
12:15 AM 37.4 °F 32.8 °F 35.6 °F 93% 30.01 in 10.0 mi North 5.8 mph - N/A   Overcast
12:35 AM 37.4 °F 32.1 °F 35.6 °F 93% 30.01 in 10.0 mi North 6.9 mph - N/A   Scattered Clouds
12:55 AM 37.4 °F 32.8 °F 35.6 °F 93% 30.00 in 10.0 mi North 5.8 mph - N/A   Clear
1:15 AM 37.4 °F 33.8 °F 35.6 °F 93% 30.00 in 10.0 mi North 4.6 mph - N/A   Clear
1:35 AM 35.6 °F - 35.6 °F 100% 30.00 in 10.0 mi Calm Calm - N/A   Clear
1:55 AM 35.6 °F - 35.6 °F 100% 30.00 in 10.0 mi Calm Calm - N/A   Clear
2:15 AM 35.6 °F 30.7 °F 33.8 °F 93% 29.99 in 10.0 mi WNW 5.8 mph - N/A   Clear
2:35 AM 35.6 °F - 35.6 °F 100% 29.99 in 10.0 mi Calm Calm - N/A   Clear
2:55 AM 35.6 °F 32.8 °F 33.8 °F 93% 30.00 in 10.0 mi NNW 3.5 mph - N/A   Clear
3:15 AM 33.8 °F 30.8 °F 33.8 °F 100% 30.00 in 10.0 mi NW 3.5 mph - N/A   Clear
3:35 AM 33.8 °F 30.8 °F 33.8 °F 100% 30.00 in 10.0 mi NW 3.5 mph - N/A   Clear
3:55 AM 33.8 °F 30.8 °F 33.8 °F 100% 30.01 in 7.0 mi NNW 3.5 mph - N/A   Clear
4:15 AM 33.8 °F 30.8 °F 33.8 °F 100% 30.01 in 5.0 mi NNW 3.5 mph - N/A   Clear
4:35 AM 33.8 °F - 33.8 °F 100% 30.01 in 5.0 mi Calm Calm - N/A   Clear
4:55 AM 33.8 °F - 33.8 °F 100% 30.01 in 0.8 mi Calm Calm - N/A   Overcast
5:15 AM 33.8 °F 30.8 °F 33.8 °F 100% 30.02 in 0.2 mi NW 3.5 mph - N/A Fog Fog
5:55 AM 33.8 °F - 33.8 °F 100% 30.02 in 0.2 mi Calm Calm - N/A Fog Fog
6:15 AM 33.8 °F 30.8 °F 33.8 °F 100% 30.03 in 0.2 mi NNW 3.5 mph - N/A Fog Fog
6:35 AM 33.8 °F 30.8 °F 33.8 °F 100% 30.03 in 1.2 mi NNW 3.5 mph - N/A   Overcast
6:55 AM 32.0 °F - 32.0 °F 100% 30.04 in 0.2 mi Calm Calm - N/A Fog Fog
7:15 AM 33.8 °F - 33.8 °F 100% 30.05 in 0.5 mi Calm Calm - N/A Fog Fog
7:35 AM 35.6 °F 31.7 °F 35.6 °F 100% 30.05 in 5.0 mi NNW 4.6 mph - N/A   Overcast
7:55 AM 37.4 °F 33.8 °F 37.4 °F 100% 30.05 in 10.0 mi NNW 4.6 mph - N/A   Scattered Clouds
8:15 AM 37.4 °F 34.9 °F 37.4 °F 100% 30.06 in 10.0 mi NNW 3.5 mph - N/A   Mostly Cloudy
8:35 AM 41.0 °F 36.4 °F 41.0 °F 100% 30.07 in 10.0 mi NNW 6.9 mph - N/A   Overcast
8:55 AM 41.0 °F 35.8 °F 39.2 °F 93% 30.08 in 10.0 mi NNW 8.1 mph - N/A   Overcast
9:15 AM 42.8 °F 39.3 °F 39.2 °F 87% 30.07 in 10.0 mi North 5.8 mph - N/A   Overcast
9:35 AM 44.6 °F 39.2 °F 39.2 °F 81% 30.08 in 10.0 mi NNW 10.4 mph - N/A   Overcast
9:55 AM 44.6 °F 40.2 °F 39.2 °F 81% 30.07 in 10.0 mi NNW 8.1 mph - N/A   Overcast
10:15 AM 46.4 °F 41.9 °F 39.2 °F 76% 30.06 in 10.0 mi North 9.2 mph - N/A   Mostly Cloudy
10:35 AM 46.4 °F 42.4 °F 41.0 °F 81% 30.08 in 10.0 mi NW 8.1 mph - N/A   Mostly Cloudy
10:55 AM 48.2 °F - 41.0 °F 76% 30.08 in 10.0 mi NW 10.4 mph 16.1 mph N/A   Overcast
11:15 AM 50.0 °F - 41.0 °F 71% 30.07 in 10.0 mi NNW 12.7 mph 17.3 mph N/A   Mostly Cloudy
11:35 AM 50.0 °F - 41.0 °F 71% 30.08 in 10.0 mi NNW 12.7 mph - N/A   Mostly Cloudy
11:55 AM 50.0 °F - 42.8 °F 76% 30.08 in 10.0 mi NNW 12.7 mph - N/A   Mostly Cloudy
12:15 PM 50.0 °F - 42.8 °F 76% 30.07 in 10.0 mi NW 10.4 mph 16.1 mph N/A   Mostly Cloudy
12:35 PM 51.8 °F - 42.8 °F 71% 30.07 in 10.0 mi NNW 11.5 mph - N/A   Mostly Cloudy
12:55 PM 51.8 °F - 42.8 °F 71% 30.06 in 10.0 mi NW 8.1 mph - N/A   Mostly Cloudy
1:15 PM 53.6 °F - 42.8 °F 67% 30.05 in 10.0 mi NW 9.2 mph - N/A   Overcast
1:35 PM 53.6 °F - 44.6 °F 72% 30.05 in 10.0 mi NW 10.4 mph 16.1 mph N/A   Overcast
1:55 PM 53.6 °F - 44.6 °F 72% 30.05 in 10.0 mi NNW 8.1 mph 16.1 mph N/A   Overcast
2:15 PM 53.6 °F - 44.6 °F 72% 30.05 in 10.0 mi NW 9.2 mph - N/A   Overcast
2:35 PM 53.6 °F - 44.6 °F 72% 30.05 in 10.0 mi NW 11.5 mph - N/A   Overcast
2:55 PM 53.6 °F - 44.6 °F 72% 30.05 in 10.0 mi NW 11.5 mph 17.3 mph N/A   Overcast
3:15 PM 53.6 °F - 44.6 °F 72% 30.05 in 10.0 mi WNW 10.4 mph - N/A   Overcast
3:35 PM 53.6 °F - 46.4 °F 77% 30.04 in 10.0 mi NW 13.8 mph - N/A   Overcast
3:55 PM 53.6 °F - 46.4 °F 77% 30.04 in 10.0 mi NNW 12.7 mph - N/A   Overcast
4:15 PM 53.6 °F - 46.4 °F 77% 30.04 in 10.0 mi NW 12.7 mph 17.3 mph N/A   Overcast
4:35 PM 53.6 °F - 46.4 °F 77% 30.03 in 10.0 mi NW 9.2 mph - N/A   Overcast
4:55 PM 53.6 °F - 46.4 °F 77% 30.03 in 10.0 mi NW 12.7 mph - N/A   Overcast
5:15 PM 53.6 °F - 46.4 °F 77% 30.03 in 10.0 mi NW 10.4 mph 16.1 mph N/A   Overcast
5:35 PM 53.6 °F - 46.4 °F 77% 30.03 in 10.0 mi NW 9.2 mph - N/A   Overcast
5:55 PM 53.6 °F - 46.4 °F 77% 30.03 in 10.0 mi WNW 9.2 mph - N/A   Overcast
6:15 PM 53.6 °F - 46.4 °F 77% 30.03 in 10.0 mi NNW 10.4 mph - N/A   Overcast
6:35 PM 53.6 °F - 46.4 °F 77% 30.03 in 10.0 mi NW 8.1 mph - N/A   Overcast
6:55 PM 53.6 °F - 46.4 °F 77% 30.03 in 10.0 mi NW 11.5 mph - N/A   Overcast
7:15 PM 53.6 °F - 46.4 °F 77% 30.02 in 10.0 mi WNW 8.1 mph - N/A   Overcast
7:35 PM 53.6 °F - 46.4 °F 77% 30.02 in 10.0 mi WNW 12.7 mph - N/A   Mostly Cloudy
7:55 PM 51.8 °F - 46.4 °F 82% 30.02 in 10.0 mi NW 6.9 mph - N/A   Scattered Clouds
8:15 PM 50.0 °F - 46.4 °F 87% 30.03 in 10.0 mi NW 5.8 mph - N/A   Scattered Clouds
8:35 PM 50.0 °F - 46.4 °F 87% 30.03 in 10.0 mi WNW 3.5 mph - N/A   Overcast
8:55 PM 50.0 °F - 46.4 °F 87% 30.03 in 10.0 mi WNW 4.6 mph - N/A   Mostly Cloudy
9:15 PM 48.2 °F - 46.4 °F 93% 30.04 in 10.0 mi WNW 4.6 mph - N/A   Scattered Clouds
9:35 PM 50.0 °F - 46.4 °F 87% 30.04 in 10.0 mi WNW 6.9 mph - N/A   Mostly Cloudy
9:55 PM 50.0 °F - 46.4 °F 87% 30.04 in 10.0 mi WNW 6.9 mph - N/A   Overcast
10:15 PM 50.0 °F - 46.4 °F 87% 30.04 in 10.0 mi WNW 9.2 mph - N/A   Overcast
10:35 PM 50.0 °F - 46.4 °F 87% 30.05 in 10.0 mi WNW 8.1 mph - N/A   Overcast
10:55 PM 50.0 °F - 46.4 °F 87% 30.05 in 10.0 mi WNW 6.9 mph - N/A   Overcast
11:15 PM 50.0 °F - 46.4 °F 87% 30.05 in 10.0 mi WNW 8.1 mph - N/A   Overcast
11:35 PM 50.0 °F - 46.4 °F 87% 30.05 in 10.0 mi NW 10.4 mph - N/A   Overcast
11:55 PM 50.0 °F - 46.4 °F 87% 30.05 in 10.0 mi NW 9.2 mph - N/A   Overcast